Regional Weather Roundup
Issued by NWS

Home | Current Version | Previous Version | Text Only | Print | Product List | Glossary Off
Versions: 1 2 3 4 5 6 7 8 9 10 11 12 13 14 15 16 17 18 19 20 21 22 23 24 25 26 27 28 29 30 31 32 33 34 35 36 37 38 39 40 41 42 43 44 45 46 47 48 49 50

000
ASUS43 KMKX 191700
RWRWI

WISCONSIN REGIONAL WEATHER ROUNDUP
NATIONAL WEATHER SERVICE MILWAUKEE/SULLIVAN WI
1200 PM CDT SUN APR 19 2015

NOTE: "FAIR" INDICATES FEW OR NO CLOUDS BELOW 12,000 FEET WITH NO
SIGNIFICANT WEATHER AND/OR OBSTRUCTIONS TO VISIBILITY.

WIZ001-002-006>008-014>016-023>028-191800-
NORTHWEST WISCONSIN

CITY           SKY/WX    TMP DP  RH WIND       PRES   REMARKS
SUPERIOR ARPT  CLOUDY    38  38  99 E10       29.70F WCI  31
ASHLAND        CLOUDY    45  42  89 N7        29.69F
HAYWARD        CLOUDY    53  38  56 SE12G20   29.67F
SIREN          CLOUDY    52  43  70 S12       29.65F
CUMBERLAND     CLOUDY    50  37  62 SE10      29.68F
RICE LAKE      CLOUDY    51  38  62 SE10      29.71F
CHETEK         CLOUDY    51  39  63 SE12G18   29.71F
LADYSMITH      CLOUDY    51  36  55 SE10      29.74F
EAU CLAIRE     CLOUDY    53  38  56 SE12      29.70F
MENOMONIE      CLOUDY    55  40  58 SE9       29.70F
NEW RICHMOND   CLOUDY    55  45  70 S10       29.67F
OSCEOLA        CLOUDY    54  45  73 SE9       29.69F
$$

WIZ003>005-009-010-017-018-191800-
NORTH CENTRAL WISCONSIN

CITY           SKY/WX    TMP DP  RH WIND       PRES   REMARKS
MANITOWISH WTR DRIZZLE   50  33  52 S12G20    29.75F
ARBOR VITAE    CLOUDY    52  32  47 S10       29.75F
WOODRUFF       CLOUDY    52  32  47 S10       29.75F
RHINELANDER    CLOUDY    54  32  43 SE9       29.77F
EAGLE RIVER    CLOUDY    50  30  45 SE10G18   29.78F
LAND O LAKES   CLOUDY    50  31  46 SE12G20   29.78F
PHILLIPS       DRIZZLE   48  36  64 SE8       29.74F
TOMAHAWK       CLOUDY    55  32  42 SE7       29.77F
MEDFORD        CLOUDY    52  35  52 SE10G17   29.73F
MERRILL        CLOUDY    55  34  45 SE10G17   29.76F
$$

WIZ029-030-035-036-043>047-191800-
CENTRAL WISCONSIN

CITY           SKY/WX    TMP DP  RH WIND       PRES   REMARKS
WAUSAU         CLOUDY    59  34  39 SE14      29.73F
MOSINEE        PTSUNNY   57  34  41 SE10G16   29.76F
MARSHFIELD     CLOUDY    58  34  40 SE13      29.73F
STEVENS POINT  PTSUNNY   60  34  36 SE10G17   29.76F
WAUPACA        MOSUNNY   62  32  31 E12G18    29.79F
WAUTOMA        NOT AVBL
WISC RAPIDS    PTSUNNY   62  32  32 S9        29.74F
CAMP DOUGLAS   NOT AVBL
$$

WIZ011>013-019>022-031-037>040-048>050-191800-
NORTHEAST WISCONSIN

CITY           SKY/WX    TMP DP  RH WIND       PRES   REMARKS
ANTIGO         PTSUNNY   55  34  45 SE14      29.79F
SHAWANO        PTSUNNY   57  31  38 E16       29.83F
OCONTO         CLOUDY    48  35  60 E6        29.86F
STURGEON BAY   PTSUNNY   48  32  53 NE5       29.87F
GREEN BAY      PTSUNNY   58  33  39 SE18      29.82F
MANITOWOC      NOT AVBL
APPLETON       MOSUNNY   59  30  33 SE13      29.80F
CLINTONVILLE   CLOUDY    55  32  41 E12       29.81F
OSHKOSH        SUNNY     62  36  37 SE15G23   29.76F
$$

WIZ032>034-041-042-053>061-191800-
SOUTHWEST WISCONSIN

CITY           SKY/WX    TMP DP  RH WIND       PRES   REMARKS
LA CROSSE      CLOUDY    56  44  64 S3        29.70F
SPARTA         CLOUDY    59  36  41 SE7       29.72F
VIROQUA        CLOUDY    58  36  43 SE10      29.71F
BOSCOBEL       CLOUDY    69  41  36 VRB5      29.69F
PRAIRIE DU CHI CLOUDY    60  39  45 E5        29.70F
PLATTEVILLE    PTSUNNY   66  41  40 E3        29.70F
$$

WIZ056-057-062-063-064-067-068-191800-
SOUTH CENTRAL WISCONSIN

CITY           SKY/WX    TMP DP  RH WIND       PRES   REMARKS
REEDSBURG      PTSUNNY   64  39  41 SE8       29.72F
BARABOO/DELLS  PTSUNNY   64  36  36 SE7       29.73F
LONE ROCK      NOT AVBL
MINERAL POINT  PTSUNNY   66  37  34 SE8       29.71F
MADISON        CLOUDY    67  38  34 SE12      29.71F
MIDDLETON      MOSUNNY   68  35  29 SE12      29.72F
WATERTOWN      MOSUNNY   64  37  36 E15       29.74F
MONROE         MOSUNNY   68  43  40 E10       29.70F
JANESVILLE     SUNNY     70  36  28 SE17G23   29.70F
$$

WIZ051-052-058>065-066-070>072-191800-
SOUTHEAST WISCONSIN

CITY           SKY/WX    TMP DP  RH WIND       PRES   REMARKS
MILWAUKEE      PTSUNNY   52  34  50 NE7       29.78F
WAUKESHA       PTSUNNY   57  34  41 E12G20    29.78F
MILWAUKEE/TIMM SUNNY     55  28  35 E9        29.80F
RACINE         MOSUNNY   55  34  45 NE8       29.79F
BURLINGTON     MOSUNNY   61  34  35 E14       29.75F
KENOSHA        MOSUNNY   59  34  39 E15       29.76F
FOND DU LAC    SUNNY     62  34  35 SE20G28   29.76F
SHEBOYGAN      PTSUNNY   56  31  38 SE12G21   29.82F
WEST BEND      MOSUNNY   55  30  38 E13       29.80F
JUNEAU         MOSUNNY   62  37  38 E17       29.76F
$$

LSZ147-162-191800-
LAKE SUPERIOR

STATION/POSITION TIME  TEMP    WIND        PRES    WAVE
                       AIR SEA DIR/SP/G            HT/PER
                 (UTC) (F)     (DEG/KT/KT) (MB)    (FT/S)
DEVILS ISLAND    1600   37      70/ 15/ 19 1007.6F
PORT WING        1640   37      40/ 16/ 17 1006.1F
SAXON HARBOR     1600   53     170/  4/  9 1006.1F
$$

LMZ867-665-643>646-191800-
LAKE MICHIGAN

STATION/POSITION TIME  TEMP    WIND        PRES    WAVE
                       AIR SEA DIR/SP/G            HT/PER
                 (UTC) (F)     (DEG/KT/KT) (MB)    (FT/S)
CHAMBERS ISLAND  1600   41      40/  8/ 10 1012.5F
NORTHPORT PIER   1600   40      60/ 12/ 17 1013.2F
SISTER BAY       1447   49     120/ 13/ 20   N/A
KEWAUNEE LAKESHO 1600   44      60/  4/  7 1010.9F
SHEBOYGAN LAKESH 1600   46     190/  4/  5 1011.5F
PORT WASHINGTON  1600   48      90/  1/  3 1011.5
MILWAUKEE LAKESH 1600   44      30/ 10/ 11   N/A
KENOSHA   LAKESH 1600   45      30/  9/  9 1009.5F
$$

TC  - TEMPERATURE IN CELSIUS
VSB - VISIBILITY IN STATUTE MILES
WCI - WIND CHILL INDEX
HX  - HEAT INDEX



USA.gov is the U.S. government's official web portal to all federal, state and local government web resources and services.